IRIDIUM 52

Last updated on Wed Nov 29 2017 00:19:02 GMT+0000 (Greenwich Mean Time)

1 25169U 98010A 17332.43700272 .00000150 00000-0 46428-4 0 9996 2 25169 86.3952 281.7034 0002162 82.9404 277.2037 14.34219155 35327
UTC large
Height (km)
Speed (km/s)
/
Latitude / Longitude
Inclination (degrees)
Orbital Period (minutes)
Azimuth
Elevation
Range (km)
Doppler Factor

Next 0 passes for location: London (51.5072 / 0.1276)

Sorry there are no passes over London.